Vidalia, GA

10:48 PM EDT on October 19, 2017 (GMT -0400)
Vidalia Municipal

Weather History for KVDI - February, 2013

Change the Weather History Date:

Friday, February 22, 2013

  Actual Average (KSBO) Record (KSBO)
Temperature  
Mean Temperature 55 °F -  
Max Temperature 59 °F 65 °F 73 °F (2015)
Min Temperature 50 °F 43 °F 33 °F (2014)
Degree Days  
Heating Degree Days 10    
Growing Degree Days 5 (Base 50)    
Moisture  
Dew Point 53 °F    
Average Humidity 90    
Maximum Humidity 100    
Minimum Humidity 77    
Precipitation  
Precipitation 0.00 in - - ()
Sea Level Pressure  
Sea Level Pressure 30.07 in    
Wind  
Wind Speed 8 mph (ENE)    
Max Wind Speed 13 mph    
Max Gust Speed 18 mph    
Visibility 7 miles    
Events Fog , Rain    
Averages and records for this station are not official NWS values.
T = Trace of Precipitation, MM = Missing Value Source: NWS Daily Summary

Daily Weather History Graph

Daily Weather History Graph

Search for Another Location

Airport or City:

Trip Planner

Search our weather history database for the weather conditions in past years. The results will help you decide how hot, cold, wet, or windy it might be!

Date:

Astronomy

Feb. 22, 2013 Rise Set
Actual Time 7:04 AM EST 6:21 PM EST
Civil Twilight 6:39 AM EST 6:46 PM EST
Nautical Twilight 6:11 AM EST 7:15 PM EST
Astronomical Twilight 5:42 AM EST 7:43 PM EST
Moon 3:38 PM EST (2/22) 4:41 AM EST (2/22)
Length of Visible Light 12h 06m
Length of Day
11h 17m
Waxing Gibbous, 90% of the Moon is Illuminated
Feb 22
Waxing Gibbous
Feb 25
Full
Mar 4
Last Quarter
Mar 11
New
Mar 19
First Quarter

Hourly Weather History & Observations

Time (EST) Temp. Dew Point Humidity Pressure Visibility Wind Dir Wind Speed Gust Speed Precip Events Conditions
12:15 AM 55.4 °F 50.0 °F 82% 30.09 in 10.0 mi East 5.8 mph - N/A   Scattered Clouds
12:35 AM 55.4 °F 50.0 °F 82% 30.08 in 10.0 mi East 6.9 mph - N/A   Mostly Cloudy
12:55 AM 55.4 °F 50.0 °F 82% 30.08 in 10.0 mi East 6.9 mph - N/A   Overcast
1:15 AM 55.4 °F 50.0 °F 82% 30.08 in 10.0 mi East 6.9 mph - N/A   Overcast
1:35 AM 55.4 °F 51.8 °F 88% 30.09 in 10.0 mi ENE 5.8 mph - N/A   Overcast
1:55 AM 55.4 °F 51.8 °F 88% 30.09 in 10.0 mi ENE 6.9 mph - N/A   Overcast
2:15 AM 55.4 °F 51.8 °F 88% 30.08 in 10.0 mi East 9.2 mph - N/A   Overcast
2:55 AM 55.4 °F 51.8 °F 88% 30.07 in 10.0 mi East 9.2 mph - N/A   Overcast
3:15 AM 55.4 °F 51.8 °F 88% 30.06 in 10.0 mi East 10.4 mph - N/A   Overcast
3:35 AM 57.2 °F 53.6 °F 88% 30.07 in 10.0 mi East 9.2 mph - N/A   Overcast
3:55 AM 57.2 °F 53.6 °F 88% 30.06 in 10.0 mi East 8.1 mph - N/A   Overcast
4:15 AM 59.0 °F 53.6 °F 82% 30.06 in 10.0 mi ENE 8.1 mph - N/A   Overcast
4:35 AM 59.0 °F 53.6 °F 82% 30.06 in 10.0 mi East 11.5 mph - N/A   Overcast
4:55 AM 59.0 °F 53.6 °F 82% 30.07 in 10.0 mi ENE 8.1 mph - N/A   Overcast
5:15 AM 59.0 °F 53.6 °F 82% 30.07 in 10.0 mi NE 8.1 mph - N/A   Overcast
5:35 AM 59.0 °F 53.6 °F 82% 30.07 in 10.0 mi ENE 11.5 mph - N/A   Overcast
5:55 AM 59.0 °F 53.6 °F 82% 30.07 in 10.0 mi East 12.7 mph - N/A   Overcast
6:15 AM 59.0 °F 53.6 °F 82% 30.07 in 10.0 mi East 10.4 mph - N/A   Overcast
6:35 AM 59.0 °F 55.4 °F 88% 30.07 in 10.0 mi East 12.7 mph 17.3 mph N/A   Overcast
6:55 AM 59.0 °F 53.6 °F 82% 30.08 in 10.0 mi East 9.2 mph 18.4 mph N/A   Overcast
7:15 AM 59.0 °F 53.6 °F 82% 30.08 in 10.0 mi East 12.7 mph - N/A   Overcast
7:55 AM 59.0 °F 53.6 °F 82% 30.09 in 10.0 mi ENE 9.2 mph - N/A   Overcast
8:15 AM 57.2 °F 53.6 °F 88% 30.09 in 10.0 mi ENE 10.4 mph - N/A   Overcast
8:35 AM 57.2 °F 53.6 °F 88% 30.09 in 10.0 mi ENE 12.7 mph - N/A   Overcast
8:55 AM 57.2 °F 51.8 °F 82% 30.10 in 10.0 mi ENE 11.5 mph - N/A   Overcast
9:15 AM 57.2 °F 50.0 °F 77% 30.11 in 10.0 mi ENE 12.7 mph - N/A   Overcast
9:35 AM 55.4 °F 50.0 °F 82% 30.11 in 10.0 mi East 12.7 mph - N/A   Overcast
9:55 AM 55.4 °F 50.0 °F 82% 30.11 in 10.0 mi ENE 11.5 mph - N/A Rain Light Rain
10:15 AM 55.4 °F 51.8 °F 88% 30.12 in 7.0 mi ENE 8.1 mph - N/A Rain Rain
10:55 AM 53.6 °F 51.8 °F 94% 30.12 in 10.0 mi ENE 9.2 mph - N/A Rain Light Rain
11:15 AM 55.4 °F 53.6 °F 94% 30.11 in 10.0 mi East 12.7 mph - N/A Rain Light Rain
11:35 AM 55.4 °F 53.6 °F 94% 30.09 in 10.0 mi ESE 9.2 mph - N/A   Overcast
11:55 AM 55.4 °F 53.6 °F 94% 30.11 in 10.0 mi East 8.1 mph - N/A Rain Light Rain
12:15 PM 55.4 °F 53.6 °F 94% 30.10 in 10.0 mi NNE 6.9 mph - N/A Rain Light Rain
12:35 PM 55.4 °F 53.6 °F 94% 30.08 in 10.0 mi East 9.2 mph - N/A   Overcast
12:55 PM 55.4 °F 53.6 °F 94% 30.08 in 7.0 mi ENE 8.1 mph - N/A Rain Light Rain
1:15 PM 55.4 °F 55.4 °F 100% 30.07 in 7.0 mi ENE 9.2 mph - N/A   Overcast
1:35 PM 57.2 °F 55.4 °F 94% 30.06 in 7.0 mi East 8.1 mph - N/A   Overcast
1:55 PM 59.0 °F 55.4 °F 88% 30.07 in 7.0 mi NE 5.8 mph - N/A   Overcast
2:15 PM 57.2 °F 55.4 °F 94% 30.06 in 7.0 mi NE 6.9 mph - N/A   Overcast
2:35 PM 57.2 °F 55.4 °F 94% 30.07 in 5.0 mi North 6.9 mph - N/A   Overcast
2:55 PM 57.2 °F 55.4 °F 94% 30.06 in 5.0 mi NE 6.9 mph - N/A   Overcast
3:15 PM 59.0 °F 55.4 °F 88% 30.05 in 5.0 mi NE 8.1 mph - N/A   Overcast
3:35 PM 59.0 °F 55.4 °F 88% 30.04 in 5.0 mi NE 6.9 mph - N/A   Overcast
3:55 PM 59.0 °F 55.4 °F 88% 30.04 in 5.0 mi NE 6.9 mph - N/A   Overcast
4:15 PM 59.0 °F 55.4 °F 88% 30.05 in 5.0 mi NE 5.8 mph - N/A   Overcast
4:55 PM 59.0 °F 57.2 °F 94% 30.05 in 5.0 mi ENE 6.9 mph - N/A   Overcast
5:15 PM 59.0 °F 57.2 °F 94% 30.05 in 5.0 mi NE 5.8 mph - N/A   Overcast
5:35 PM 59.0 °F 57.2 °F 94% 30.04 in 4.0 mi ENE 6.9 mph - N/A   Overcast
5:55 PM 57.2 °F 55.4 °F 94% 30.03 in 3.0 mi NE 6.9 mph - N/A   Overcast
6:15 PM 57.2 °F 55.4 °F 94% 30.04 in 1.5 mi ENE 5.8 mph - N/A   Overcast
6:35 PM 57.2 °F 55.4 °F 94% 30.04 in 1.0 mi ENE 6.9 mph - N/A   Overcast
6:55 PM 57.2 °F 55.4 °F 94% 30.05 in 0.5 mi NE 4.6 mph - N/A Fog Fog
7:15 PM 55.4 °F 55.4 °F 100% 30.06 in 0.5 mi East 4.6 mph - N/A Rain Light Rain
7:35 PM 55.4 °F 55.4 °F 100% 30.07 in 0.5 mi North 5.8 mph - N/A Rain Rain
7:55 PM 55.4 °F 53.6 °F 94% 30.07 in 1.0 mi NNE 6.9 mph - N/A Rain Rain
8:15 PM 55.4 °F 53.6 °F 94% 30.08 in 1.0 mi NE 3.5 mph - N/A Rain Light Rain
8:35 PM 55.4 °F 53.6 °F 94% 30.07 in 2.0 mi NE 5.8 mph - N/A Rain Rain
8:55 PM 53.6 °F 53.6 °F 100% 30.07 in 4.0 mi NNE 5.8 mph - N/A Rain Light Rain
9:15 PM 53.6 °F 53.6 °F 100% 30.04 in 5.0 mi ENE 11.5 mph - N/A Rain Light Rain
9:35 PM 53.6 °F 53.6 °F 100% 30.07 in 7.0 mi NE 3.5 mph - N/A Rain Light Rain
9:55 PM 53.6 °F 53.6 °F 100% 30.07 in 5.0 mi NE 5.8 mph - N/A Rain Rain
10:15 PM 53.6 °F 53.6 °F 100% 30.05 in 5.0 mi NE 6.9 mph - N/A Rain Rain
10:35 PM 53.6 °F 53.6 °F 100% 30.06 in 5.0 mi NNE 6.9 mph - N/A Rain Light Rain
10:55 PM 53.6 °F 51.8 °F 94% 30.07 in 7.0 mi NNE 9.2 mph - N/A Rain Light Rain
11:15 PM 51.8 °F 51.8 °F 100% 30.06 in 10.0 mi NNE 11.5 mph - N/A Rain Rain
11:35 PM 51.8 °F 50.0 °F 94% 30.06 in 10.0 mi North 6.9 mph - N/A Rain Rain
11:55 PM 50.0 °F 50.0 °F 100% 30.05 in 10.0 mi NE 8.1 mph - N/A Rain Rain